Location: Drawsko Pomorskie
(53.5317°N, 15.8111°E)
Time: 18:40:43
(UTC+01:00)

Envisat - Pass Details

Date: 26 October 2019
Orbit: 764 x 766 km, 98.1° (Epoch: 22 November)

Event Time Altitude Azimuth Distance (km) Brightness Sun altitude
Rises 19:08:14 0° 175° (S) 3,223 6.2 -14.1°
Reaches altitude 10° 19:10:34 10° 180° (S) 2,301 5.5 -14.4°
Maximum altitude 19:15:34 58° 259° (W) 896 3.7 -15.2°
Drops below altitude 10° 19:20:36 10° 339° (NNW) 2,317 5.8 -15.9°
Sets 19:22:58 0° 343° (NNW) 3,248 6.5 -16.3°
